Tracking 19489 objects as of 23-Jan-2019
HD Live streaming from Space Station
objects crossing your sky now

DELTA 2 R/B(1)

Track DELTA 2 R/B(1) now!
10-day predictions
DELTA 2 R/B(1) is classified as:


NORAD ID: 20453
Int'l Code: 1990-008B
Perigee: 423.1 km
Apogee: 820.4 km
Inclination: 35.6 °
Period: 97.0 minutes
Semi major axis: 6992 km
RCS: 9.8525 m2 (large)
Launch date: January 24, 1990
Source: United States (US)
Launch site: AIR FORCE EASTERN TEST RANGE (AFETR)

Note: This is a ROCKET BODY
aabbcc
Your satellite tracking list
Your tracking list is empty




NASA's NSSDC Master Catalog

Two Line Element Set (TLE):
1 20453U 90008B   19022.18733576  .00001108  00000-0  65177-4 0  9995
2 20453  35.6264  34.8806 0284085 351.4802   8.1155 14.84662516535007
Source of the keplerian elements: AFSPC